Flag Weather past 2 weeks in Stonewall, Manitoba, Canada

Now
-20 °F

Clear.


Feels Like: -37 °F
Forecast: -15 / -1 °F
Wind: 7 mph from Northwest

Location: Winnipeg Int. Airportman.

Current Time: Nov 26, 2014 at 8:21:09 AM

Latest Report: Nov 26, 2014 at 7:00 AM


Visibility: 15 mi

Pressure: 30.50 "Hg

Humidity: 75%

Dew point: -26 °F

Location of StonewallLocation

Historic Weather in Stonewall — Graph

°F

Stonewall temperature yesterday

Maximum temperature yesterday: 12 °F (at 12:00 PM)
Minimum temperature yesterday: -4 °F (at 11:00 PM)
Average temperature yesterday: 6 °F

Past Weeks' High & Low Weather Summary

 TemperatureHumidityPressure
High36 °F (Nov 21, 10:00 PM)100% (Nov 23, 11:00 AM)30.56 "Hg (Nov 23, 11:00 AM)
Low-20 °F (Nov 26, 7:00 AM)53% (Nov 14, 2:00 PM)29.35 "Hg (Nov 23, 12:00 AM)
Average13 °F76%30.03 "Hg
* Reported Nov 11 7:00 AM — Nov 26 7:00 AM, Stonewall, Weather by CustomWeather, © 2014

Note: Actual official high and low records may vary slightly from our data, if they occured in-between our weather recording intervals... More about our weather records

Advertising

Stonewall weather history for previous 24 hours

 ConditionsComfort  
Time TempWeatherWind HumidityBarometerVisibility
7:00 AM
Nov 26
-20 °FClear.7 mph75%30.50 "Hg15 mi
6:00 AM-18 °FClear.8 mph69%30.50 "Hg15 mi
5:00 AM-17 °FClear.10 mph76%30.47 "Hg15 mi
4:00 AM-17 °FClear.8 mph69%30.46 "Hg15 mi
3:00 AM-15 °FClear.9 mph69%30.45 "Hg15 mi
2:00 AM-13 °FClear.9 mph76%30.41 "Hg15 mi
1:00 AM-9 °FClear.9 mph77%30.38 "Hg15 mi
12:00 AM-6 °FClear.10 mph70%30.36 "Hg15 mi
11:00 PM
Nov 25
-4 °FClear.14 mph65%30.33 "Hg15 mi
10:00 PM0 °FClear.12 mph71%30.29 "Hg15 mi
9:00 PM5 °FPassing clouds.12 mph66%30.25 "Hg15 mi
8:00 PM5 °FPassing clouds.16 mph72%30.22 "Hg15 mi
7:00 PM7 °FLight snow. Partly cloudy.16 mph72%30.19 "Hg15 mi
6:00 PM7 °FLight snow. Mostly cloudy.17 mph78%30.16 "Hg2 mi
5:00 PM9 °FLight snow. Mostly cloudy.17 mph78%30.14 "Hg2 mi
4:00 PM9 °FLight snow. Mostly cloudy.15 mph78%30.12 "Hg3 mi
3:00 PM10 °FLight snow. Cloudy.12 mph79%30.09 "Hg3 mi
2:00 PM10 °FLight snow. Overcast.13 mph79%30.07 "Hg2 mi
1:00 PM12 °FLight snow. Overcast.10 mph73%30.06 "Hg15 mi
12:00 PM12 °FLight snow. Overcast.9 mph73%30.06 "Hg15 mi
11:00 AM10 °FLight snow. Overcast.9 mph79%30.06 "Hg12 mi
10:00 AM10 °FMostly cloudy.8 mph79%30.06 "Hg11 mi
9:00 AM9 °FLight snow. Overcast.9 mph78%30.06 "Hg15 mi
8:55 AM9 °FLight snow. Overcast.7 mph78%30.05 "Hg15 mi
8:00 AM9 °FOvercast.12 mph78%30.04 "Hg15 mi
Weather by CustomWeather, © 2014

See weather overviewHow to use our weather pages